When you browse on this site, cookies collect data to enhance your experience and personalize the content and advertising you see.
Visit our Privacy Policy to learn more. By continuing to use the site, you agree to this use of cookies and data.
  • In Spain
  • List of Countries
  • For 7 days
  • Water Temperature
  • Weather Map
  • Weather Widgets
  • user-avatar
    Login

    Hourly Weather Algiers

    Today, 30 May, Saturday

    Time Temperature Precipitation Wind Pressure Humidity
    00:00 +19°C° 0 mm 4 mps 747 mmHg 82%
    01:00 +19°C° 0 mm 4 mps 746 mmHg 83%
    02:00 +19°C° 0 mm 4 mps 746 mmHg 85%
    03:00 +17°C° 0 mm 5 mps 746 mmHg 87%
    04:00 +19°C° 0 mm 4 mps 746 mmHg 86%
    05:00 +19°C° 0 mm 4 mps 747 mmHg 86%
    06:00 +19°C° 0 mm 4 mps 747 mmHg 85%
    07:00 +20°C° 0 mm 4 mps 747 mmHg 79%
    08:00 +21°C° 0 mm 4 mps 747 mmHg 72%
    09:00 +22°C° 0 mm 4 mps 747 mmHg 66%
    10:00 +23°C° 0 mm 5 mps 747 mmHg 63%
    11:00 +23°C° 0 mm 5 mps 747 mmHg 60%
    12:00 +25°C° 0 mm 5 mps 747 mmHg 58%
    13:00 +25°C° 0 mm 5 mps 747 mmHg 56%
    14:00 +25°C° 0 mm 5 mps 747 mmHg 55%
    15:00 +25°C° 0 mm 5 mps 747 mmHg 54%
    16:00 +23°C° 0 mm 5 mps 747 mmHg 56%
    17:00 +22°C° 0 mm 5 mps 747 mmHg 58%
    18:00 +22°C° 0 mm 5 mps 746 mmHg 61%
    19:00 +21°C° 0 mm 4 mps 747 mmHg 62%
    20:00 +20°C° 0 mm 4 mps 747 mmHg 64%
    21:00 +20°C° 0 mm 4 mps 747 mmHg 66%
    22:00 +20°C° 0 mm 4 mps 747 mmHg 63%
    23:00 +20°C° 0 mm 4 mps 747 mmHg 60%

    Tomorrow, 31 May, Sunday

    Time Temperature Precipitation Wind Pressure Humidity
    00:00 +20°C° 0 mm 3 mps 747 mmHg 57%
    01:00 +20°C° 0 mm 3 mps 747 mmHg 56%
    02:00 +20°C° 0 mm 3 mps 747 mmHg 54%
    03:00 +20°C° 0 mm 3 mps 746 mmHg 52%
    04:00 +20°C° 0 mm 4 mps 746 mmHg 52%
    05:00 +20°C° 0 mm 4 mps 746 mmHg 52%
    06:00 +21°C° 0 mm 4 mps 746 mmHg 51%
    07:00 +22°C° 0 mm 5 mps 746 mmHg 46%
    08:00 +25°C° 0 mm 5 mps 747 mmHg 40%
    09:00 +27°C° 0 mm 5 mps 747 mmHg 34%
    10:00 +28°C° 0 mm 6 mps 746 mmHg 35%
    11:00 +29°C° 0 mm 7 mps 746 mmHg 35%
    12:00 +29°C° 0 mm 8 mps 746 mmHg 35%
    13:00 +29°C° 0 mm 8 mps 745 mmHg 36%
    14:00 +29°C° 0 mm 8 mps 745 mmHg 37%
    15:00 +29°C° 0 mm 9 mps 745 mmHg 38%
    16:00 +28°C° 0.3 mm 8 mps 744 mmHg 42%
    17:00 +27°C° 0.3 mm 8 mps 744 mmHg 47%
    18:00 +24°C° 0.3 mm 7 mps 744 mmHg 52%
    19:00 +24°C° 0.2 mm 7 mps 744 mmHg 54%
    20:00 +24°C° 0.2 mm 6 mps 745 mmHg 57%
    21:00 +23°C° 0.2 mm 5 mps 745 mmHg 59%
    22:00 +23°C° 0 mm 5 mps 745 mmHg 61%
    23:00 +23°C° 0 mm 4 mps 745 mmHg 63%

    Day after tomorrow, 1 June, Monday

    Time Temperature Precipitation Wind Pressure Humidity
    00:00 +23°C° 0 mm 4 mps 745 mmHg 65%
    01:00 +22°C° 0 mm 4 mps 745 mmHg 66%
    02:00 +22°C° 0 mm 3 mps 745 mmHg 67%
    03:00 +22°C° 0 mm 3 mps 745 mmHg 68%
    04:00 +22°C° 0 mm 3 mps 745 mmHg 67%
    05:00 +22°C° 0 mm 3 mps 746 mmHg 66%
    06:00 +24°C° 0 mm 2 mps 746 mmHg 66%
    07:00 +24°C° 0 mm 2 mps 746 mmHg 64%
    08:00 +25°C° 0 mm 3 mps 746 mmHg 62%
    09:00 +26°C° 0 mm 3 mps 747 mmHg 59%
    10:00 +26°C° 0 mm 3 mps 747 mmHg 59%
    11:00 +27°C° 0 mm 3 mps 747 mmHg 58%
    12:00 +27°C° 0 mm 3 mps 747 mmHg 58%
    13:00 +27°C° 0 mm 3 mps 747 mmHg 57%
    14:00 +27°C° 0 mm 4 mps 747 mmHg 56%
    15:00 +27°C° 0 mm 4 mps 747 mmHg 55%
    16:00 +27°C° 0 mm 4 mps 746 mmHg 57%
    17:00 +26°C° 0 mm 4 mps 746 mmHg 60%
    18:00 +25°C° 0 mm 4 mps 746 mmHg 62%
    19:00 +25°C° 0 mm 4 mps 747 mmHg 65%
    20:00 +24°C° 0 mm 3 mps 747 mmHg 68%
    21:00 +22°C° 0 mm 3 mps 747 mmHg 71%
    22:00 +22°C° 0 mm 3 mps 747 mmHg 70%
    23:00 +22°C° 0 mm 3 mps 747 mmHg 69%

    2 June, Tuesday

    Time Temperature Precipitation Wind Pressure Humidity
    00:00 +22°C° 0 mm 3 mps 746 mmHg 68%
    01:00 +22°C° 0 mm 3 mps 746 mmHg 67%
    02:00 +22°C° 0 mm 3 mps 746 mmHg 67%
    03:00 +22°C° 0 mm 4 mps 746 mmHg 66%
    04:00 +22°C° 0 mm 3 mps 746 mmHg 64%
    05:00 +24°C° 0 mm 3 mps 746 mmHg 62%
    06:00 +25°C° 0 mm 3 mps 746 mmHg 61%
    07:00 +26°C° 0 mm 3 mps 746 mmHg 55%
    08:00 +28°C° 0 mm 3 mps 746 mmHg 50%
    09:00 +30°C° 0 mm 3 mps 747 mmHg 44%
    10:00 +30°C° 0 mm 3 mps 746 mmHg 44%
    11:00 +30°C° 0 mm 4 mps 746 mmHg 43%
    12:00 +32°C° 0 mm 5 mps 746 mmHg 42%
    13:00 +32°C° 0 mm 5 mps 745 mmHg 42%
    14:00 +32°C° 0 mm 5 mps 745 mmHg 41%
    15:00 +32°C° 0 mm 5 mps 744 mmHg 41%
    16:00 +30°C° 0 mm 5 mps 744 mmHg 42%
    17:00 +30°C° 0 mm 5 mps 743 mmHg 44%
    18:00 +29°C° 0 mm 5 mps 743 mmHg 45%
    19:00 +28°C° 0 mm 4 mps 743 mmHg 48%
    20:00 +27°C° 0 mm 3 mps 743 mmHg 50%
    21:00 +27°C° 0 mm 2 mps 744 mmHg 53%
    22:00 +27°C° 0.1 mm 2 mps 743 mmHg 53%
    23:00 +27°C° 0.1 mm 2 mps 743 mmHg 53%

    3 June, Wednesday

    Time Temperature Precipitation Wind Pressure Humidity
    00:00 +27°C° 0.1 mm 2 mps 743 mmHg 53%
    01:00 +25°C° 0 mm 3 mps 743 mmHg 60%
    02:00 +23°C° 0 mm 5 mps 742 mmHg 67%
    03:00 +22°C° 0 mm 6 mps 742 mmHg 74%
    04:00 +22°C° 0 mm 6 mps 742 mmHg 77%
    05:00 +21°C° 0 mm 6 mps 742 mmHg 80%
    06:00 +21°C° 0 mm 6 mps 743 mmHg 82%
    07:00 +22°C° 0 mm 5 mps 743 mmHg 76%
    08:00 +25°C° 0 mm 5 mps 743 mmHg 70%
    09:00 +26°C° 0 mm 4 mps 743 mmHg 64%
    10:00 +27°C° 0 mm 4 mps 743 mmHg 59%
    11:00 +28°C° 0 mm 4 mps 743 mmHg 54%
    12:00 +29°C° 0 mm 4 mps 742 mmHg 50%
    13:00 +28°C° 0 mm 4 mps 742 mmHg 50%
    14:00 +28°C° 0 mm 3 mps 742 mmHg 50%
    15:00 +28°C° 0 mm 3 mps 741 mmHg 50%
    16:00 +27°C° 0 mm 3 mps 741 mmHg 51%
    17:00 +27°C° 0 mm 2 mps 741 mmHg 51%
    18:00 +26°C° 0 mm 2 mps 741 mmHg 52%
    19:00 +25°C° 0 mm 2 mps 742 mmHg 53%
    20:00 +25°C° 0 mm 2 mps 742 mmHg 54%
    21:00 +25°C° 0 mm 1 mps 743 mmHg 56%
    22:00 +25°C° 0 mm 1 mps 742 mmHg 54%
    23:00 +25°C° 0 mm 1 mps 742 mmHg 52%

    4 June, Thursday

    Time Temperature Precipitation Wind Pressure Humidity
    00:00 +25°C° 0 mm 2 mps 742 mmHg 51%
    01:00 +24°C° 0 mm 1 mps 742 mmHg 50%
    02:00 +24°C° 0 mm 1 mps 742 mmHg 48%
    03:00 +24°C° 0 mm 1 mps 741 mmHg 47%
    04:00 +25°C° 0 mm 1 mps 741 mmHg 46%
    05:00 +25°C° 0 mm 1 mps 742 mmHg 44%
    06:00 +26°C° 0 mm 1 mps 742 mmHg 42%
    07:00 +27°C° 0 mm 2 mps 742 mmHg 40%
    08:00 +28°C° 0 mm 2 mps 742 mmHg 37%
    09:00 +29°C° 0 mm 2 mps 742 mmHg 34%
    10:00 +29°C° 0 mm 2 mps 742 mmHg 36%
    11:00 +29°C° 0 mm 3 mps 742 mmHg 37%
    12:00 +29°C° 0 mm 3 mps 742 mmHg 38%
    13:00 +29°C° 0 mm 3 mps 742 mmHg 40%
    14:00 +29°C° 0 mm 3 mps 742 mmHg 41%
    15:00 +28°C° 0 mm 3 mps 742 mmHg 42%
    16:00 +28°C° 0 mm 2 mps 742 mmHg 46%
    17:00 +27°C° 0 mm 2 mps 742 mmHg 50%
    18:00 +26°C° 0 mm 1 mps 742 mmHg 53%
    19:00 +25°C° 0 mm 1 mps 742 mmHg 53%
    20:00 +25°C° 0 mm 1 mps 742 mmHg 53%
    21:00 +25°C° 0 mm 1 mps 743 mmHg 53%
    22:00 +25°C° 0 mm 1 mps 742 mmHg 51%
    23:00 +25°C° 0 mm 1 mps 742 mmHg 50%
    Show more